Voltar ao catálogo

OBJECT C

AtivoSSO
NORAD 100131·UNKNOWN·🇨🇳 China

Lançado Jul 22, 2026 de Yellow Sea Launch Area

Loading…

Próximas Passagens (próximas 24 horas)

TLE

AtualizadoSource: Space-Track

Época: Sep 14, 2026, 04:35 UTC

1 A0131U 26168C   26257.19107387  .00002844  00000-0  18029-3 0  9997
2 A0131  97.5364 338.0052 0020599 141.5926 218.6774 15.09568838  8168

Acompanhe OBJECT C em tempo real com AllMySat

Download on the App Store